Location: Unspecified
(45.3712°N, 0.6436°E)
Time: 15:57:43
(UTC+02:00)

ISS - Pass Details

Date: 18 July 2018
Orbit: 402 x 408 km, 51.6° (Epoch: 23 July)

Event Time Altitude Azimuth Distance (km) Brightness Sun altitude
Exits shadow 00:50:02 18° 61° (ENE) 1,091 -1.6 -21.5°
Drops below altitude 10° 00:50:59 10° 61° (ENE) 1,469 -0.9 -21.5°
Sets 00:53:04 0° 61° (ENE) 2,333 0.2 -21.6°
